COSMOS 627 DEB, 45504

Orbit data source: Space-Track

COSMOS 627 DEB, 45504 is space debris in LEO originally from a launch on Sat, 29 Dec 1973 UTC launched from the Plesetsk Missile And Space Complex (PKMTR). Debris objects in space refer to the collection of defunct objects orbiting the Earth. Examples of debris include non-operational satellites, rocket bodies, and fragments generated from explosions, collisions, or faulty payload assembly.

Loading next visibility...
COSMOS 627 DEB details
Identifier
45504, 1973-109C
Orbit
LEO
Last TLE update1 day ago
Origin
Flag of CISVMF RF (CIS)
ManufacturerUnknown
MissionSpacecraft
Bus & MotorUnknown
MassUnknown
Launch date (UTC)
1973-12-29 (51 years ago)
Launch vehicleUnknown
Launch site
Plesetsk Missile And Space Complex (PKMTR)
Object type
Payload
Rocket body
Debris
Shape & HBRUnknown
Radar Cross SectionSmall (<0.1 m²)

Expand to show TLE details & history

TLE from 1 day ago
0 COSMOS 627 DEB
1 45504U 73109C   24345.79247782  .00000446  00000-0  45695-3 0  9998
2 45504  82.9525 167.0745 0031992  67.1377 293.3151 13.74099482547867
Epoch: 2024-12-10T19:01Z
Definitive object data (Epoch: 2024-12-10T19:01:10.083Z)
Latitude-0.00006°
Longitude161.78605°
Altitude978.527 km
Speed7.367 km/s
True Right ascension11h 08m 17s
True Declination0° 00' 00"
Sunlit
Object was in daylight at TLE epoch
Visualization TLE readout
Latitude47.63928°
Longitude-26.79125°
Altitude983.379 km
Speed7.369 km/s
Apparent Right ascension03h 19m 51s
Apparent Declination24° 42' 54"
Sunlit
Object is in daylight
Visualization observer readout
Local Sidereal Time20:16:07
Azimuth61.175° ENE
Elevation4.416°
Doppler factor1
Orbital elements
Apogee altitude1,005.586 km
Perigee altitude958.493 km
Semi-major axis7,360.177 km
Eccentricity0.0031992
Inclination82.9525°
RAAN167.0745°
Arg. of periapsis67.1377°
True anomaly292.9779°
Mean anomaly293.3151°
Eccentric anomaly293.14655°
Mean motion3.43725 °/min
BSTAR0.00045695
Orbital period104.73 mins
Loading maneuver chart data...
Loading historical data...
Loading historical data...
Loading historical data...
Loading historical data...
Loading historical data...
Loading historical data...
Loading historical data...
Other satellites on launch #109 in the year 1973 (1973-12-29 UTC)

COSMOS 627 DEB Visibility forecast

Observer location: undefined°, undefined

Span
Click to sort rows by Start time (UTC) header in descending order
Start Az.
Max El. time (UTC)
Max El. Az.
Max El.
End time (UTC)
End Az.
11 mins2024-12-11 23:33:12.075Z5.88° NNE2024-12-11 23:39:12.075Z84.137° E35.359°2024-12-11 23:44:12.075Z147.421° SSE
7 mins2024-12-12 01:21:12.075Z313.496° NW2024-12-12 01:24:12.075Z274.851° WNW23.368°2024-12-12 01:28:12.075Z227.96° WSW
4 mins2024-12-12 11:23:12.075Z95.642° ESE2024-12-12 11:24:12.075Z85.128° E13.706°2024-12-12 11:27:12.075Z54.406° ENE
10 mins2024-12-12 13:05:12.075Z193.515° SSW2024-12-12 13:09:12.075Z257.159° W44.18°2024-12-12 13:15:12.075Z3.853° NNE
|